Location: G�migny
(47.9646°N, 1.6950°E)
Time: 09:25:50
(UTC+00:00)

ATLAS CENTAUR R/B - Pass Details

Date: 23 October 2019
Orbit: 456 x 692 km, 64.6° (Epoch: 31 October)

Event Time Altitude Azimuth Distance (km) Brightness Sun altitude
Rises 18:29:32 0° 325° (NW) 2,969 5.6 -17.2°
Reaches altitude 10° 18:32:33 10° 343° (NNW) 2,012 4.4 -17.7°
Maximum altitude 18:35:44 18° 28° (NNE) 1,482 3.3 -18.2°
Enters shadow 18:36:02 18° 33° (NNE) 1,483 3.2 -18.3°
